TimePDT,TemperatureF,Dew PointF,Humidity,Sea Level PressureIn,VisibilityMPH,Wind Direction,Wind SpeedMPH,Gust SpeedMPH,PrecipitationIn,Events,Conditions,WindDirDegrees,DateUTC
12:07 AM,55.4,48.2,77,30.19,10.0,West,8.1,-,N/A,,Scattered Clouds,260,2013-04-06 07:07:00
12:47 AM,55.4,48.2,77,30.19,10.0,Calm,Calm,-,N/A,,Mostly Cloudy,0,2013-04-06 07:47:00
12:56 AM,55.0,50.0,83,30.19,10.0,WNW,3.5,-,N/A,,Mostly Cloudy,290,2013-04-06 07:56:00
1:56 AM,55.0,51.1,86,30.19,5.0,SW,5.8,-,N/A,,Overcast,230,2013-04-06 08:56:00
2:03 AM,55.4,51.8,88,30.19,8.0,SW,5.8,-,N/A,,Overcast,230,2013-04-06 09:03:00
2:18 AM,55.4,51.8,88,30.19,10.0,Calm,Calm,-,N/A,,Overcast,0,2013-04-06 09:18:00
2:35 AM,53.6,51.8,94,30.18,10.0,Calm,Calm,-,0.00,Rain,Light Rain,0,2013-04-06 09:35:00
2:56 AM,55.0,51.1,86,30.18,10.0,Calm,Calm,-,0.00,,Overcast,0,2013-04-06 09:56:00
3:31 AM,55.4,50.0,82,30.17,10.0,Calm,Calm,-,N/A,,Overcast,0,2013-04-06 10:31:00
3:56 AM,55.0,50.0,83,30.17,10.0,SSW,3.5,-,N/A,,Overcast,210,2013-04-06 10:56:00
4:56 AM,54.0,50.0,86,30.17,10.0,Calm,Calm,-,N/A,,Overcast,0,2013-04-06 11:56:00
5:17 AM,55.4,50.0,82,30.17,10.0,Calm,Calm,-,N/A,,Overcast,0,2013-04-06 12:17:00
5:56 AM,55.0,48.9,80,30.17,10.0,SSW,5.8,-,N/A,,Overcast,210,2013-04-06 12:56:00
6:56 AM,55.0,48.9,80,30.17,10.0,South,4.6,-,N/A,,Mostly Cloudy,190,2013-04-06 13:56:00
7:56 AM,55.9,48.9,77,30.18,10.0,South,5.8,-,N/A,,Mostly Cloudy,170,2013-04-06 14:56:00
8:56 AM,57.0,48.9,74,30.19,10.0,SSE,6.9,-,N/A,,Mostly Cloudy,150,2013-04-06 15:56:00
9:09 AM,55.4,48.2,77,30.19,4.0,SE,5.8,-,0.00,Fog-Rain,Light Rain,130,2013-04-06 16:09:00
9:12 AM,55.4,50.0,82,30.19,3.0,SSE,5.8,-,0.00,Fog-Rain,Light Rain,150,2013-04-06 16:12:00
9:19 AM,55.4,50.0,82,30.19,2.5,SSE,4.6,-,0.00,Fog-Rain,Light Rain,150,2013-04-06 16:19:00
9:27 AM,55.4,51.8,88,30.19,1.0,SE,4.6,-,0.00,Fog-Rain,Light Rain,140,2013-04-06 16:27:00
9:46 AM,55.4,51.8,88,30.19,3.0,SE,4.6,-,0.01,Fog,Overcast,130,2013-04-06 16:46:00
9:56 AM,55.9,52.0,87,30.19,8.0,SSE,6.9,-,0.01,Fog,Overcast,150,2013-04-06 16:56:00
10:56 AM,57.0,53.1,87,30.19,8.0,Variable,4.6,-,0.00,,Overcast,0,2013-04-06 17:56:00
11:56 AM,60.1,52.0,75,30.21,10.0,WSW,11.5,-,N/A,,Overcast,240,2013-04-06 18:56:00
12:28 PM,60.8,51.8,72,30.20,10.0,SW,8.1,-,N/A,,Mostly Cloudy,220,2013-04-06 19:28:00
12:56 PM,61.0,52.0,72,30.20,10.0,West,11.5,18.4,N/A,,Mostly Cloudy,260,2013-04-06 19:56:00
1:35 PM,62.6,51.8,68,30.19,10.0,West,10.4,-,N/A,,Mostly Cloudy,260,2013-04-06 20:35:00
1:56 PM,62.1,52.0,70,30.19,10.0,West,13.8,-,N/A,,Mostly Cloudy,260,2013-04-06 20:56:00
2:56 PM,59.0,51.1,75,30.19,10.0,West,11.5,-,N/A,,Overcast,270,2013-04-06 21:56:00
3:56 PM,61.0,50.0,67,30.18,10.0,WSW,9.2,17.3,N/A,,Mostly Cloudy,250,2013-04-06 22:56:00
4:56 PM,59.0,48.9,69,30.17,10.0,West,10.4,-,N/A,,Mostly Cloudy,270,2013-04-06 23:56:00
5:44 PM,57.2,48.2,72,30.16,10.0,West,15.0,-,N/A,,Mostly Cloudy,270,2013-04-07 00:44:00
5:56 PM,57.9,48.9,72,30.16,10.0,West,13.8,-,N/A,,Overcast,280,2013-04-07 00:56:00
6:56 PM,55.9,48.0,75,30.16,10.0,West,15.0,-,N/A,,Mostly Cloudy,280,2013-04-07 01:56:00
7:56 PM,55.0,48.0,77,30.17,10.0,West,12.7,18.4,N/A,,Mostly Cloudy,270,2013-04-07 02:56:00
8:39 PM,55.4,48.2,77,30.17,10.0,WSW,13.8,-,N/A,,Overcast,250,2013-04-07 03:39:00
8:56 PM,55.0,48.0,77,30.17,10.0,West,8.1,-,N/A,,Overcast,270,2013-04-07 03:56:00
9:56 PM,54.0,48.0,80,30.18,10.0,WSW,5.8,-,N/A,,Overcast,250,2013-04-07 04:56:00
10:56 PM,54.0,46.9,77,30.19,10.0,WNW,8.1,-,N/A,,Mostly Cloudy,290,2013-04-07 05:56:00
11:56 PM,54.0,46.9,77,30.19,10.0,WSW,6.9,-,N/A,,Mostly Cloudy,250,2013-04-07 06:56:00